datetime,flow volume
2009-04-16,3530.57851
2009-04-17,2757.02479
2009-04-18,2677.68595
2009-04-19,3153.71901
2009-04-20,3986.77686
2009-04-21,5652.89256
2009-04-22,6505.78512
2009-04-23,6684.29752
2009-04-24,6942.14876
2009-04-25,6505.78512
2009-04-26,5890.90909
2009-04-27,4680.99174
2009-04-28,4085.95041
2009-04-29,3550.41322
2009-04-30,5057.85124
2009-05-01,5732.2314
2009-05-02,6406.61157
2009-05-03,6684.29752
2009-05-04,5613.22314
2009-05-05,4720.66116
2009-05-06,4978.5124
2009-05-07,6466.1157
2009-05-08,8033.05785
2009-05-09,7834.71074
2009-05-10,7239.66942
2009-05-11,7477.68595
2009-05-12,7120.66116
2009-05-13,6743.80165
2009-05-14,5851.23967
2009-05-15,5395.04132
2009-05-16,5335.53719
2009-05-17,5276.03306
2009-05-18,5474.38017
2009-05-19,5752.06612
2009-05-20,5137.19008
2009-05-21,4899.17355
2009-05-22,4740.49587
2009-05-23,4284.29752
2009-05-24,7140.49587
2009-05-25,8271.07438
2009-05-26,6823.1405
2009-05-27,5593.38843
2009-05-28,4780.16529
2009-05-29,4601.65289
2009-05-30,4284.29752
2009-05-31,4343.80165
2009-06-01,4125.61983
2009-06-02,3867.7686
2009-06-03,4502.47934
2009-06-04,4284.29752
2009-06-05,4165.28926
2009-06-06,3669.42149
2009-06-07,3054.54545
2009-06-08,2598.34711
2009-06-09,2400.0
2009-06-10,2320.66116
2009-06-11,2340.49587
2009-06-12,2320.66116
2009-06-13,2181.81818
2009-06-14,2300.82645
2009-06-15,2261.15702
2009-06-16,2261.15702
2009-06-17,2181.81818
2009-06-18,2221.4876
2009-06-19,2221.4876
2009-06-20,2340.49587
2009-06-21,2380.16529
2009-06-22,2499.17355
2009-06-23,2340.49587
2009-06-24,2102.47934
2009-06-25,2479.33884
2009-06-26,2757.02479
2009-06-27,2816.52893
2009-06-28,2320.66116
2009-06-29,2062.80992
2009-06-30,1836.69421
2009-07-01,1654.21488
2009-07-02,1541.15702
2009-07-03,1576.8595
2009-07-04,1590.7438
2009-07-05,1475.70248
2009-07-06,1352.72727
2009-07-07,1001.65289
2009-07-08,793.38843
2009-07-09,678.34711
2009-07-10,589.09091
2009-07-11,497.85124
2009-07-12,485.95041
2009-07-13,448.26446
2009-07-14,404.6281
2009-07-15,311.40496
2009-07-16,269.75207
2009-07-17,224.13223
2009-07-18,210.24793
2009-07-19,208.26446
2009-07-20,206.28099
2009-07-21,204.29752
2009-07-22,194.38017
2009-07-23,196.76033
2009-07-24,189.02479
2009-07-25,202.31405
2009-07-26,232.06612
2009-07-27,309.42149
2009-07-28,285.61983
2009-07-29,247.93388
2009-07-30,226.1157
2009-07-31,249.91736
2009-08-01,243.96694
2009-08-02,222.14876
2009-08-03,218.18182
2009-08-04,212.2314
2009-08-05,210.24793
2009-08-06,210.24793
2009-08-07,249.91736
2009-08-08,232.06612
2009-08-09,224.13223
2009-08-10,212.2314
2009-08-11,194.97521
2009-08-12,195.3719
2009-08-13,197.35537
2009-08-14,224.13223
2009-08-15,259.83471
2009-08-16,241.98347
2009-08-17,226.1157
2009-08-18,206.28099
2009-08-19,194.57851
2009-08-20,202.31405
2009-08-21,197.35537
2009-08-22,188.6281
2009-08-23,196.16529
2009-08-24,224.13223
2009-08-25,247.93388
2009-08-26,230.08264
2009-08-27,220.16529
2009-08-28,204.29752
2009-08-29,206.28099
2009-08-30,208.26446
2009-08-31,208.26446
2009-09-01,193.38843
2009-09-02,193.98347
2009-09-03,198.34711
2009-09-04,200.33058
2009-09-05,196.76033
2009-09-06,200.33058
2009-09-07,216.19835
2009-09-08,200.33058
2009-09-09,189.81818
2009-09-10,192.39669
2009-09-11,196.95868
2009-09-12,206.28099
2009-09-13,214.21488
2009-09-14,234.04959
2009-09-15,236.03306
2009-09-16,240.0
2009-09-17,261.81818
2009-09-18,257.85124
2009-09-19,273.71901
2009-09-20,277.68595
2009-09-21,297.52066
2009-09-22,283.63636
2009-09-23,263.80165
2009-09-24,271.73554
2009-09-25,269.75207
2009-09-26,255.86777
2009-09-27,247.93388
2009-09-28,234.04959
2009-09-29,216.19835
2009-09-30,202.31405
2009-10-01,206.28099
2009-10-02,228.09917
2009-10-03,241.98347
2009-10-04,253.8843
2009-10-05,249.91736
2009-10-06,259.83471
2009-10-07,269.75207
2009-10-08,269.75207
2009-10-09,277.68595
2009-10-10,287.60331
2009-10-11,283.63636
2009-10-12,287.60331
2009-10-13,319.33884
2009-10-14,347.10744
2009-10-15,404.6281
2009-10-16,396.69421
2009-10-17,366.94215
2009-10-18,359.00826
2009-10-19,343.1405
2009-10-20,335.20661
2009-10-21,341.15702
2009-10-22,345.12397
2009-10-23,343.1405
2009-10-24,343.1405
2009-10-25,359.00826
2009-10-26,347.10744
2009-10-27,345.12397
2009-10-28,390.7438
2009-10-29,406.61157
2009-10-30,414.54545
2009-10-31,370.90909
2009-11-01,382.80992
2009-11-02,382.80992
2009-11-03,372.89256
2009-11-04,357.02479
2009-11-05,349.09091
2009-11-06,353.05785
2009-11-07,351.07438
2009-11-08,347.10744
2009-11-09,345.12397
2009-11-10,357.02479
2009-11-11,355.04132
2009-11-12,359.00826
2009-11-13,355.04132
2009-11-14,424.46281
2009-11-15,424.46281
2009-11-16,357.02479
2009-11-17,307.43802
2009-11-18,333.22314
2009-11-19,357.02479
2009-11-20,349.09091
2009-11-21,335.20661
2009-11-22,360.99174
2009-11-23,345.12397
2009-11-24,301.4876
2009-11-25,245.95041
2009-11-26,301.4876
2009-11-27,315.3719
2009-11-28,317.35537
2009-11-29,341.15702
2009-11-30,311.40496
2009-12-01,283.63636
2009-12-02,249.91736
2009-12-03,236.03306
2009-12-04,228.09917
2009-12-05,226.1157
2009-12-06,222.14876
2009-12-07,236.03306
2009-12-08,251.90083
2009-12-09,251.90083
2009-12-10,253.8843
2009-12-11,255.86777
2009-12-12,263.80165
2009-12-13,265.78512
2009-12-14,265.78512
2009-12-15,265.78512
2009-12-16,273.71901
2009-12-17,257.85124
2009-12-18,261.81818
2009-12-19,249.91736
2009-12-20,249.91736
2009-12-21,247.93388
2009-12-22,253.8843
2009-12-23,265.78512
2009-12-24,261.81818
2009-12-25,263.80165
2009-12-26,253.8843
2009-12-27,247.93388
2009-12-28,253.8843
2009-12-29,249.91736
2009-12-30,234.04959
2009-12-31,236.03306
2010-01-01,234.04959
2010-01-02,232.06612
2010-01-03,230.08264
2010-01-04,226.1157
2010-01-05,232.06612
2010-01-06,241.98347
2010-01-07,230.08264
2010-01-08,220.16529
2010-01-09,224.13223
2010-01-10,243.96694
2010-01-11,247.93388
2010-01-12,245.95041
2010-01-13,241.98347
2010-01-14,236.03306
2010-01-15,226.1157
2010-01-16,222.14876
2010-01-17,232.06612
2010-01-18,228.09917
2010-01-19,249.91736
2010-01-20,253.8843
2010-01-21,253.8843
2010-01-22,275.70248
2010-01-23,273.71901
2010-01-24,255.86777
2010-01-25,243.96694
2010-01-26,236.03306
2010-01-27,251.90083
2010-01-28,267.7686
2010-01-29,269.75207
2010-01-30,267.7686
2010-01-31,253.8843
2010-02-01,255.86777
2010-02-02,226.1157
2010-02-03,226.1157
2010-02-04,251.90083
2010-02-05,243.96694
2010-02-06,259.83471
2010-02-07,253.8843
2010-02-08,255.86777
2010-02-09,251.90083
2010-02-10,261.81818
2010-02-11,271.73554
2010-02-12,265.78512
2010-02-13,265.78512
2010-02-14,255.86777
2010-02-15,232.06612
2010-02-16,269.75207
2010-02-17,251.90083
2010-02-18,273.71901
2010-02-19,277.68595
2010-02-20,291.57025
2010-02-21,293.55372
2010-02-22,273.71901
2010-02-23,230.08264
2010-02-24,234.04959
2010-02-25,287.60331
2010-02-26,277.68595
2010-02-27,251.90083
2010-02-28,273.71901
2010-03-01,287.60331
2010-03-02,303.47107
2010-03-03,315.3719
2010-03-04,349.09091
2010-03-05,380.82645
2010-03-06,335.20661
2010-03-07,327.27273
2010-03-08,400.66116
2010-03-09,384.79339
2010-03-10,359.00826
2010-03-11,333.22314
2010-03-12,307.43802
2010-03-13,303.47107
2010-03-14,323.30579
2010-03-15,319.33884
2010-03-16,323.30579
2010-03-17,333.22314
2010-03-18,360.99174
2010-03-19,430.41322
2010-03-20,424.46281
2010-03-21,360.99174
2010-03-22,355.04132
2010-03-23,366.94215
2010-03-24,362.97521
2010-03-25,325.28926
2010-03-26,319.33884
2010-03-27,315.3719
2010-03-28,293.55372
2010-03-29,297.52066
2010-03-30,323.30579
2010-03-31,404.6281
2010-04-01,487.93388
2010-04-02,454.21488
2010-04-03,392.72727
2010-04-04,452.2314
2010-04-05,470.08264
2010-04-06,287.60331
2010-04-07,257.85124
2010-04-08,283.63636
2010-04-09,868.76033
2010-04-10,1162.31405
2010-04-11,1511.40496
2010-04-12,2062.80992
2010-04-13,2776.8595
2010-04-14,2201.65289
2010-04-15,2915.70248
2010-04-16,3510.7438
2010-04-17,4522.31405
2010-04-18,4621.4876
2010-04-19,4760.33058
2010-04-20,5414.87603
2010-04-21,6168.59504
2010-04-22,6922.31405
2010-04-23,4899.17355
2010-04-24,3371.90083
2010-04-25,2618.18182
2010-04-26,2142.14876
2010-04-27,2360.33058
2010-04-28,2895.86777
2010-04-29,3411.57025
2010-04-30,2975.20661
2010-05-01,2201.65289
2010-05-02,1834.71074
2010-05-03,1711.73554
2010-05-04,1850.57851
2010-05-05,2181.81818
2010-05-06,2340.49587
2010-05-07,2201.65289
2010-05-08,2201.65289
2010-05-09,2241.32231
2010-05-10,2915.70248
2010-05-11,2499.17355
2010-05-12,2181.81818
2010-05-13,2023.1405
2010-05-14,1842.64463
2010-05-15,1923.96694
2010-05-16,1745.45455
2010-05-17,1795.04132
2010-05-18,2439.66942
2010-05-19,2439.66942
2010-05-20,2320.66116
2010-05-21,2737.19008
2010-05-22,3629.75207
2010-05-23,3332.2314
2010-05-24,4085.95041
2010-05-25,2856.19835
2010-05-26,2657.85124
2010-05-27,3371.90083
2010-05-28,4423.1405
2010-05-29,5335.53719
2010-05-30,5077.68595
2010-05-31,4978.5124
2010-06-01,5038.01653
2010-06-02,4740.49587
2010-06-03,3252.89256
2010-06-04,3669.42149
2010-06-05,4938.84298
2010-06-06,5672.72727
2010-06-07,5950.41322
2010-06-08,5494.21488
2010-06-09,5375.20661
2010-06-10,4879.33884
2010-06-11,3927.27273
2010-06-12,3252.89256
2010-06-13,3094.21488
2010-06-14,2657.85124
2010-06-15,2102.47934
2010-06-16,1890.24793
2010-06-17,1854.54545
2010-06-18,1812.89256
2010-06-19,1789.09091
2010-06-20,1695.86777
2010-06-21,1568.92562
2010-06-22,1291.23967
2010-06-23,1194.04959
2010-06-24,1088.92562
2010-06-25,1035.3719
2010-06-26,973.8843
2010-06-27,958.01653
2010-06-28,844.95868
2010-06-29,745.78512
2010-06-30,636.69421
2010-07-01,571.23967
2010-07-02,507.7686
2010-07-03,472.06612
2010-07-04,426.44628
2010-07-05,359.00826
2010-07-06,263.80165
2010-07-07,194.97521
2010-07-08,157.28926
2010-07-09,175.1405
2010-07-10,180.49587
2010-07-11,154.90909
2010-07-12,157.28926
2010-07-13,164.2314
2010-07-14,144.0
2010-07-15,136.8595
2010-07-16,162.84298
2010-07-17,161.05785
2010-07-18,148.95868
2010-07-19,142.21488
2010-07-20,143.60331
2010-07-21,269.75207
2010-07-22,408.59504
2010-07-23,273.71901
2010-07-24,234.04959
2010-07-25,198.34711
2010-07-26,197.55372
2010-07-27,243.96694
2010-07-28,525.61983
2010-07-29,321.32231
2010-07-30,261.81818
2010-07-31,295.53719
2010-08-01,485.95041
2010-08-02,468.09917
2010-08-03,460.16529
2010-08-04,349.09091
2010-08-05,489.91736
2010-08-06,400.66116
2010-08-07,366.94215
2010-08-08,400.66116
2010-08-09,374.87603
2010-08-10,331.23967
2010-08-11,321.32231
2010-08-12,372.89256
2010-08-13,378.84298
2010-08-14,307.43802
2010-08-15,297.52066
2010-08-16,305.45455
2010-08-17,404.6281
2010-08-18,390.7438
2010-08-19,446.28099
2010-08-20,733.8843
2010-08-21,458.18182
2010-08-22,396.69421
2010-08-23,416.52893
2010-08-24,359.00826
2010-08-25,317.35537
2010-08-26,301.4876
2010-08-27,285.61983
2010-08-28,289.58678
2010-08-29,309.42149
2010-08-30,313.38843
2010-08-31,299.50413
2010-09-01,279.66942
2010-09-02,279.66942
2010-09-03,297.52066
2010-09-04,285.61983
2010-09-05,279.66942
2010-09-06,271.73554
2010-09-07,269.75207
2010-09-08,335.20661
2010-09-09,366.94215
2010-09-10,339.17355
2010-09-11,319.33884
2010-09-12,319.33884
2010-09-13,323.30579
2010-09-14,305.45455
2010-09-15,297.52066
2010-09-16,287.60331
2010-09-17,279.66942
2010-09-18,269.75207
2010-09-19,261.81818
2010-09-20,271.73554
2010-09-21,287.60331
2010-09-22,311.40496
2010-09-23,428.42975
2010-09-24,420.49587
2010-09-25,384.79339
2010-09-26,331.23967
2010-09-27,315.3719
2010-09-28,299.50413
2010-09-29,289.58678
2010-09-30,285.61983
2010-10-01,275.70248
2010-10-02,259.83471
2010-10-03,261.81818
2010-10-04,261.81818
2010-10-05,283.63636
2010-10-06,279.66942
2010-10-07,265.78512
2010-10-08,285.61983
2010-10-09,301.4876
2010-10-10,299.50413
2010-10-11,291.57025
2010-10-12,285.61983
2010-10-13,291.57025
2010-10-14,287.60331
2010-10-15,299.50413
2010-10-16,315.3719
2010-10-17,321.32231
2010-10-18,325.28926
2010-10-19,331.23967
2010-10-20,345.12397
2010-10-21,351.07438
2010-10-22,456.19835
2010-10-23,485.95041
2010-10-24,599.00826
2010-10-25,704.13223
2010-10-26,823.1405
2010-10-27,541.4876
2010-10-28,483.96694
2010-10-29,460.16529
2010-10-30,456.19835
2010-10-31,440.33058
2010-11-01,436.36364
2010-11-02,420.49587
2010-11-03,410.57851
2010-11-04,408.59504
2010-11-05,410.57851
2010-11-06,408.59504
2010-11-07,416.52893
2010-11-08,412.56198
2010-11-09,487.93388
2010-11-10,487.93388
2010-11-11,468.09917
2010-11-12,454.21488
2010-11-13,426.44628
2010-11-14,440.33058
2010-11-15,454.21488
2010-11-16,388.76033
2010-11-17,378.84298
2010-11-18,349.09091
2010-11-19,347.10744
2010-11-20,368.92562
2010-11-21,362.97521
2010-11-22,360.99174
2010-11-23,333.22314
2010-11-24,339.17355
2010-11-25,291.57025
2010-11-26,277.68595
2010-11-27,313.38843
2010-11-28,339.17355
2010-11-29,364.95868
2010-11-30,315.3719
2010-12-01,293.55372
2010-12-02,303.47107
2010-12-03,319.33884
2010-12-04,327.27273
2010-12-05,329.2562
2010-12-06,305.45455
2010-12-07,323.30579
2010-12-08,285.61983
2010-12-09,309.42149
2010-12-10,317.35537
2010-12-11,307.43802
2010-12-12,293.55372
2010-12-13,285.61983
2010-12-14,301.4876
2010-12-15,297.52066
2010-12-16,285.61983
2010-12-17,269.75207
2010-12-18,303.47107
2010-12-19,341.15702
2010-12-20,388.76033
2010-12-21,583.1405
2010-12-22,537.52066
2010-12-23,493.8843
2010-12-24,489.91736
2010-12-25,406.61157
2010-12-26,368.92562
2010-12-27,426.44628
2010-12-28,406.61157
2010-12-29,370.90909
2010-12-30,396.69421
2010-12-31,368.92562
2011-01-01,357.02479
2011-01-02,335.20661
2011-01-03,360.99174
2011-01-04,384.79339
2011-01-05,394.71074
2011-01-06,384.79339
2011-01-07,378.84298
2011-01-08,380.82645
2011-01-09,390.7438
2011-01-10,376.8595
2011-01-11,366.94215
2011-01-12,378.84298
2011-01-13,384.79339
2011-01-14,368.92562
2011-01-15,370.90909
2011-01-16,366.94215
2011-01-17,355.04132
2011-01-18,351.07438
2011-01-19,319.33884
2011-01-20,297.52066
2011-01-21,285.61983
2011-01-22,293.55372
2011-01-23,293.55372
2011-01-24,289.58678
2011-01-25,277.68595
2011-01-26,283.63636
2011-01-27,285.61983
2011-01-28,287.60331
2011-01-29,281.65289
2011-01-30,281.65289
2011-01-31,297.52066
2011-02-01,273.71901
2011-02-02,238.01653
2011-02-03,238.01653
2011-02-04,247.93388
2011-02-05,271.73554
2011-02-06,271.73554
2011-02-07,255.86777
2011-02-08,261.81818
2011-02-09,263.80165
2011-02-10,261.81818
2011-02-11,267.7686
2011-02-12,271.73554
2011-02-13,273.71901
2011-02-14,277.68595
2011-02-15,283.63636
2011-02-16,305.45455
2011-02-17,311.40496
2011-02-18,311.40496
2011-02-19,299.50413
2011-02-20,355.04132
2011-02-21,311.40496
2011-02-22,289.58678
2011-02-23,287.60331
2011-02-24,307.43802
2011-02-25,299.50413
2011-02-26,293.55372
2011-02-27,281.65289
2011-02-28,285.61983
2011-03-01,279.66942
2011-03-02,309.42149
2011-03-03,337.19008
2011-03-04,364.95868
2011-03-05,315.3719
2011-03-06,323.30579
2011-03-07,333.22314
2011-03-08,362.97521
2011-03-09,351.07438
2011-03-10,329.2562
2011-03-11,341.15702
2011-03-12,382.80992
2011-03-13,440.33058
2011-03-14,470.08264
2011-03-15,495.86777
2011-03-16,553.38843
2011-03-17,710.08264
2011-03-18,880.66116
2011-03-19,904.46281
2011-03-20,779.50413
2011-03-21,706.1157
2011-03-22,725.95041
2011-03-23,666.44628
2011-03-24,678.34711
2011-03-25,654.54545
2011-03-26,414.54545
2011-03-27,620.82645
2011-03-28,852.89256
2011-03-29,1372.56198
2011-03-30,444.29752
2011-03-31,464.13223
2011-04-01,737.85124
2011-04-02,1269.42149
2011-04-03,2300.82645
2011-04-04,1983.47107
2011-04-05,1517.35537
2011-04-06,1775.20661
2011-04-07,1709.75207
2011-04-08,1723.63636
2011-04-09,1771.23967
2011-04-10,1685.95041
2011-04-11,1507.43802
2011-04-12,1479.66942
2011-04-13,1553.05785
2011-04-14,2062.80992
2011-04-15,1787.10744
2011-04-16,1888.26446
2011-04-17,2439.66942
2011-04-18,3153.71901
2011-04-19,4938.84298
2011-04-20,4323.96694
2011-04-21,4284.29752
2011-04-22,4442.97521
2011-04-23,3550.41322
2011-04-24,3252.89256
2011-04-25,3272.72727
2011-04-26,2975.20661
2011-04-27,2360.33058
2011-04-28,1908.09917
2011-04-29,1975.53719
2011-04-30,1929.91736
2011-05-01,1741.4876
2011-05-02,1545.12397
2011-05-03,1330.90909
2011-05-04,1582.80992
2011-05-05,2479.33884
2011-05-06,3570.24793
2011-05-07,5216.52893
2011-05-08,7100.82645
2011-05-09,7834.71074
2011-05-10,5910.7438
2011-05-11,5216.52893
2011-05-12,4304.13223
2011-05-13,3471.07438
2011-05-14,4561.98347
2011-05-15,5395.04132
2011-05-16,7200.0
2011-05-17,6981.81818
2011-05-18,5732.2314
2011-05-19,4641.32231
2011-05-20,3907.43802
2011-05-21,3510.7438
2011-05-22,3352.06612
2011-05-23,3887.60331
2011-05-24,4403.30579
2011-05-25,4323.96694
2011-05-26,4998.34711
2011-05-27,6485.95041
2011-05-28,7953.71901
2011-05-29,9282.64463
2011-05-30,9996.69421
2011-05-31,7497.52066
2011-06-01,7457.85124
2011-06-02,7914.04959
2011-06-03,9064.46281
2011-06-04,8390.08264
2011-06-05,8766.94215
2011-06-06,9619.83471
2011-06-07,10333.8843
2011-06-08,9302.47934
2011-06-09,8647.93388
2011-06-10,7993.38843
2011-06-11,7457.85124
2011-06-12,7299.17355
2011-06-13,7021.4876
2011-06-14,6386.77686
2011-06-15,6049.58678
2011-06-16,6247.93388
2011-06-17,6565.28926
2011-06-18,5652.89256
2011-06-19,5117.35537
2011-06-20,4661.15702
2011-06-21,4066.1157
2011-06-22,3907.43802
2011-06-23,4383.47107
2011-06-24,4879.33884
2011-06-25,5117.35537
2011-06-26,5355.3719
2011-06-27,4819.83471
2011-06-28,3966.94215
2011-06-29,4264.46281
2011-06-30,4800.0
2011-07-01,4661.15702
2011-07-02,3867.7686
2011-07-03,3768.59504
2011-07-04,3550.41322
2011-07-05,3411.57025
2011-07-06,3709.09091
2011-07-07,3570.24793
2011-07-08,3173.55372
2011-07-09,3530.57851
2011-07-10,3411.57025
2011-07-11,2776.8595
2011-07-12,3094.21488
2011-07-13,3371.90083
2011-07-14,2677.68595
2011-07-15,2221.4876
2011-07-16,1707.7686
2011-07-17,1509.42149
2011-07-18,1529.2562
2011-07-19,1406.28099
2011-07-20,1297.19008
2011-07-21,1084.95868
2011-07-22,958.01653
2011-07-23,813.22314
2011-07-24,718.01653
2011-07-25,636.69421
2011-07-26,612.89256
2011-07-27,670.41322
2011-07-28,610.90909
2011-07-29,513.71901
2011-07-30,466.1157
2011-07-31,458.18182
2011-08-01,440.33058
2011-08-02,416.52893
2011-08-03,388.76033
2011-08-04,420.49587
2011-08-05,402.64463
2011-08-06,331.23967
2011-08-07,291.57025
2011-08-08,277.68595
2011-08-09,305.45455
2011-08-10,303.47107
2011-08-11,293.55372
2011-08-12,281.65289
2011-08-13,257.85124
2011-08-14,275.70248
2011-08-15,390.7438
2011-08-16,364.95868
2011-08-17,366.94215
2011-08-18,323.30579
2011-08-19,299.50413
2011-08-20,295.53719
2011-08-21,281.65289
2011-08-22,273.71901
2011-08-23,277.68595
2011-08-24,255.86777
2011-08-25,247.93388
2011-08-26,263.80165
2011-08-27,271.73554
2011-08-28,299.50413
2011-08-29,355.04132
2011-08-30,360.99174
2011-08-31,313.38843
2011-09-01,301.4876
2011-09-02,293.55372
2011-09-03,291.57025
2011-09-04,279.66942
2011-09-05,277.68595
2011-09-06,319.33884
2011-09-07,406.61157
2011-09-08,388.76033
2011-09-09,362.97521
2011-09-10,400.66116
2011-09-11,376.8595
2011-09-12,384.79339
2011-09-13,366.94215
2011-09-14,362.97521
2011-09-15,418.5124
2011-09-16,434.38017
2011-09-17,483.96694
2011-09-18,555.3719
2011-09-19,499.83471
2011-09-20,466.1157
2011-09-21,444.29752
2011-09-22,410.57851
2011-09-23,392.72727
2011-09-24,380.82645
2011-09-25,370.90909
2011-09-26,351.07438
2011-09-27,337.19008
2011-09-28,333.22314
2011-09-29,323.30579
2011-09-30,315.3719
2011-10-01,313.38843
2011-10-02,327.27273
2011-10-03,335.20661
2011-10-04,396.69421
2011-10-05,456.19835
2011-10-06,610.90909
2011-10-07,628.76033
2011-10-08,547.43802
2011-10-09,583.1405
2011-10-10,551.40496
2011-10-11,511.73554
2011-10-12,495.86777
2011-10-13,489.91736
2011-10-14,485.95041
2011-10-15,466.1157
2011-10-16,464.13223
2011-10-17,474.04959
2011-10-18,533.55372
2011-10-19,511.73554
2011-10-20,495.86777
2011-10-21,472.06612
2011-10-22,446.28099
2011-10-23,438.34711
2011-10-24,436.36364
2011-10-25,460.16529
2011-10-26,708.09917
2011-10-27,583.1405
2011-10-28,505.78512
2011-10-29,485.95041
2011-10-30,487.93388
2011-10-31,505.78512
2011-11-01,485.95041
2011-11-02,519.66942
2011-11-03,499.83471
2011-11-04,474.04959
2011-11-05,511.73554
2011-11-06,545.45455
2011-11-07,511.73554
2011-11-08,472.06612
2011-11-09,454.21488
2011-11-10,424.46281
2011-11-11,408.59504
2011-11-12,394.71074
2011-11-13,402.64463
2011-11-14,485.95041
2011-11-15,460.16529
2011-11-16,446.28099
2011-11-17,420.49587
2011-11-18,416.52893
2011-11-19,454.21488
2011-11-20,438.34711
2011-11-21,432.39669
2011-11-22,434.38017
2011-11-23,400.66116
2011-11-24,424.46281
2011-11-25,440.33058
2011-11-26,432.39669
2011-11-27,378.84298
2011-11-28,386.77686
2011-11-29,464.13223
2011-11-30,432.39669
2011-12-01,444.29752
2011-12-02,420.49587
2011-12-03,454.21488
2011-12-04,436.36364
2011-12-05,398.67769
2011-12-06,357.02479
2011-12-07,301.4876
2011-12-08,271.73554
2011-12-09,305.45455
2011-12-10,374.87603
2011-12-11,394.71074
2011-12-12,364.95868
2011-12-13,341.15702
2011-12-14,374.87603
2011-12-15,380.82645
2011-12-16,341.15702
2011-12-17,349.09091
2011-12-18,364.95868
2011-12-19,374.87603
2011-12-20,372.89256
2011-12-21,374.87603
2011-12-22,360.99174
2011-12-23,303.47107
2011-12-24,335.20661
2011-12-25,374.87603
2011-12-26,390.7438
2011-12-27,394.71074
2011-12-28,376.8595
2011-12-29,351.07438
2011-12-30,360.99174
2011-12-31,309.42149
2012-01-01,287.60331
2012-01-02,291.57025
2012-01-03,295.53719
2012-01-04,303.47107
2012-01-05,329.2562
2012-01-06,343.1405
2012-01-07,345.12397
2012-01-08,329.2562
2012-01-09,289.58678
2012-01-10,267.7686
2012-01-11,240.0
2012-01-12,240.0
2012-01-13,238.01653
2012-01-14,251.90083
2012-01-15,305.45455
2012-01-16,325.28926
2012-01-17,307.43802
2012-01-18,315.3719
2012-01-19,341.15702
2012-01-20,325.28926
2012-01-21,331.23967
2012-01-22,359.00826
2012-01-23,301.4876
2012-01-24,303.47107
2012-01-25,273.71901
2012-01-26,279.66942
2012-01-27,335.20661
2012-01-28,317.35537
2012-01-29,307.43802
2012-01-30,299.50413
2012-01-31,295.53719
2012-02-01,297.52066
2012-02-02,309.42149
2012-02-03,313.38843
2012-02-04,293.55372
2012-02-05,281.65289
2012-02-06,257.85124
2012-02-07,236.03306
2012-02-08,226.1157
2012-02-09,243.96694
2012-02-10,236.03306
2012-02-11,281.65289
2012-02-12,331.23967
2012-02-13,345.12397
2012-02-14,349.09091
2012-02-15,335.20661
2012-02-16,323.30579
2012-02-17,299.50413
2012-02-18,259.83471
2012-02-19,241.98347
2012-02-20,240.0
2012-02-21,241.98347
2012-02-22,241.98347
2012-02-23,279.66942
2012-02-24,253.8843
2012-02-25,265.78512
2012-02-26,295.53719
2012-02-27,281.65289
2012-02-28,388.76033
2012-02-29,331.23967
2012-03-01,319.33884
2012-03-02,291.57025
2012-03-03,240.0
2012-03-04,232.06612
2012-03-05,236.03306
2012-03-06,255.86777
2012-03-07,261.81818
2012-03-08,236.03306
2012-03-09,230.08264
2012-03-10,285.61983
2012-03-11,345.12397
2012-03-12,412.56198
2012-03-13,487.93388
2012-03-14,602.97521
2012-03-15,686.28099
2012-03-16,773.55372
2012-03-17,894.54545
2012-03-18,948.09917
2012-03-19,854.87603
2012-03-20,712.06612
2012-03-21,481.98347
2012-03-22,458.18182
2012-03-23,664.46281
2012-03-24,936.19835
2012-03-25,1162.31405
2012-03-26,1261.4876
2012-03-27,1265.45455
2012-03-28,1380.49587
2012-03-29,1513.38843
2012-03-30,1436.03306
2012-03-31,1557.02479
2012-04-01,1666.1157
2012-04-02,1699.83471
2012-04-03,1223.80165
2012-04-04,896.52893
2012-04-05,1140.49587
2012-04-06,985.78512
2012-04-07,781.4876
2012-04-08,688.26446
2012-04-09,755.70248
2012-04-10,884.6281
2012-04-11,963.96694
2012-04-12,1077.02479
2012-04-13,749.75207
2012-04-14,714.04959
2012-04-15,525.61983
2012-04-16,378.84298
2012-04-17,261.81818
2012-04-18,208.26446
2012-04-19,238.01653
2012-04-20,325.28926
2012-04-21,307.43802
2012-04-22,456.19835
2012-04-23,569.2562
2012-04-24,714.04959
2012-04-25,924.29752
2012-04-26,956.03306
2012-04-27,1297.19008
2012-04-28,1132.56198
2012-04-29,757.68595
2012-04-30,591.07438
2012-05-01,539.50413
2012-05-02,478.01653
2012-05-03,422.47934
2012-05-04,487.93388
2012-05-05,658.5124
2012-05-06,781.4876
2012-05-07,751.73554
2012-05-08,612.89256
2012-05-09,481.98347
2012-05-10,505.78512
2012-05-11,589.09091
2012-05-12,729.91736
2012-05-13,842.97521
2012-05-14,805.28926
2012-05-15,829.09091
2012-05-16,833.05785
2012-05-17,795.3719
2012-05-18,813.22314
2012-05-19,773.55372
2012-05-20,668.42975
2012-05-21,638.67769
2012-05-22,721.98347
2012-05-23,805.28926
2012-05-24,714.04959